"2007/01/01",  4.2,  5.2,  2.9
"2007/01/02",  5.3,  5.9,  4.6
"2007/01/03",  5.8,  6.6,  5.4
"2007/01/04",  5.3,  6.2,  4.6
"2007/01/05",  4.7,  5.9,  3.6
"2007/01/06",  4.9,  5.3,  4.6
"2007/01/07",  4.6,  5.3,  4.1
"2007/01/08",  4.2,  5.4,  3.2
"2007/01/09",  3.9,  5.2,  2.8
"2007/01/10",  4.2,  5.6,  3.1
"2007/01/11",  3.7,  5.0,  2.5
"2007/01/12",  3.8,  4.7,  3.1
"2007/01/13",  3.9,  5.0,  2.7
"2007/01/14",  3.4,  4.7,  2.2
"2007/01/15",  3.0,  4.2,  1.8
"2007/01/16",  3.6,  5.1,  2.5
"2007/01/17",  4.1,  4.8,  3.5
"2007/01/18",  5.1,  6.6,  4.2
"2007/01/19",  4.5,  5.8,  3.3
"2007/01/20",  3.7,  4.4,  3.0
"2007/01/21",  4.5,  5.7,  3.7
"2007/01/22",  5.3,  6.6,  4.5
"2007/01/23",  4.5,  5.8,  3.3
"2007/01/24",  4.6,  5.6,  3.8
"2007/01/25",  3.9,  5.3,  2.5
"2007/01/26",  3.7,  4.8,  2.5
"2007/01/27",  4.9,  6.4,  3.7
"2007/01/28",  5.0,  6.0,  3.8
"2007/01/29",  5.3,  5.9,  4.8
"2007/01/30",  4.8,  6.6,  3.3
"2007/01/31",  5.3,  7.0,  4.0
"2007/02/01",  5.7,  6.9,  4.6
"2007/02/02",  4.7,  5.9,  3.6
"2007/02/03",  4.0,  5.4,  2.5
"2007/02/04",  4.1,  5.4,  3.0
"2007/02/05",  3.9,  5.5,  2.3
"2007/02/06",  5.2,  7.0,  3.7
"2007/02/07",  5.3,  6.8,  3.9
"2007/02/08",  4.9,  6.4,  3.3
"2007/02/09",  5.9,  7.2,  4.5
"2007/02/10",  7.0,  8.0,  6.1
"2007/02/11",  6.6,  7.7,  5.6
"2007/02/12",  5.8,  7.3,  4.2
"2007/02/13",  6.0,  7.4,  4.6
"2007/02/14",  6.6,  7.8,  6.0
"2007/02/15",  7.9,  9.1,  6.9
"2007/02/16",  6.2,  7.4,  4.9
"2007/02/17",  5.8,  7.0,  4.4
"2007/02/18",  6.0,  6.5,  5.2
"2007/02/19",  5.6,  7.7,  3.8
"2007/02/20",  5.7,  6.4,  5.3
"2007/02/21",  6.5,  8.6,  5.0
"2007/02/22",  6.5,  8.1,  4.7
"2007/02/23",  7.2,  7.9,  6.6
"2007/02/24",  6.8,  8.1,  5.5
"2007/02/25",  5.2,  6.4,  4.0
"2007/02/26",  5.5,  7.6,  3.8
"2007/02/27",  5.9,  7.8,  3.9
"2007/02/28",  7.1,  8.4,  6.2
"2007/03/01",  6.6,  8.6,  4.8
"2007/03/02",  6.6,  8.2,  5.0
"2007/03/03",  7.2,  8.6,  6.0
"2007/03/04",  9.1, 11.0,  7.5
"2007/03/05",  9.7, 10.4,  8.9
"2007/03/06",  9.7, 10.5,  8.7
"2007/03/07",  8.3,  9.9,  6.8
"2007/03/08",  8.1,  9.9,  6.3
"2007/03/09",  7.5,  8.3,  6.4
"2007/03/10",  7.7,  9.0,  6.2
"2007/03/11",  8.3,  9.0,  7.2
"2007/03/12",  6.7,  8.3,  5.2
"2007/03/13",  6.6,  8.6,  4.9
"2007/03/14",  6.8,  8.8,  4.9
"2007/03/15",  6.7,  8.5,  4.9
"2007/03/16",  7.5,  8.9,  6.4
"2007/03/17",  7.2,  8.3,  6.2
"2007/03/18",  7.0,  9.2,  4.9
"2007/03/19",  7.3,  9.4,  5.3
"2007/03/20",  8.1, 10.0,  6.4
"2007/03/21",  8.4, 10.0,  6.9
"2007/03/22",  9.0, 10.8,  7.4
"2007/03/23",  9.3, 11.5,  7.2
"2007/03/24", 10.0, 11.3,  8.5
"2007/03/25", 11.0, 11.6, 10.5
"2007/03/26", 10.8, 12.6,  9.0
"2007/03/27", 10.2, 11.0,  9.3
"2007/03/28", 11.2, 13.2,  9.2
"2007/03/29", 12.0, 13.6, 10.3
"2007/03/30", 12.5, 14.3, 11.3
"2007/03/31", 10.9, 12.1, 10.1
"2007/04/01", 12.8, 14.6, 11.0
"2007/04/02", 12.5, 13.2, 11.9
"2007/04/03", 10.4, 12.0,  9.1
"2007/04/04",  9.2, 10.4,  8.1
"2007/04/05",  9.7, 12.2,  7.3
"2007/04/06",  9.9, 10.9,  8.9
"2007/04/07", 11.2, 13.5,  9.0
"2007/04/08", 12.8, 14.9, 10.8
"2007/04/09", 12.6, 13.8, 11.4
"2007/04/10", 12.0, 14.0, 10.0
"2007/04/11", 12.2, 13.4, 11.0
"2007/04/12", 12.7, 15.1, 10.6
"2007/04/13", 12.7, 13.8, 11.5
"2007/04/14", 14.4, 16.9, 12.5
"2007/04/15", 13.7, 15.0, 12.2
"2007/04/16", 12.3, 13.6, 11.1
"2007/04/17", 10.9, 12.0, 10.2
"2007/04/18",  9.9, 10.7,  9.4
"2007/04/19",  9.5, 10.5,  8.7
"2007/04/20", 10.6, 12.6,  8.5
"2007/04/21", 12.7, 14.3, 11.1
"2007/04/22", 14.0, 15.0, 13.0
"2007/04/23", 13.3, 14.4, 12.2
"2007/04/24", 12.6, 14.1, 11.4
"2007/04/25", 13.1, 13.8, 12.4
"2007/04/26", 14.1, 15.8, 12.5
"2007/04/27", 13.6, 15.5, 11.6
"2007/04/28", 13.7, 15.8, 12.0
"2007/04/29", 14.0, 16.5, 11.4
"2007/04/30", 15.1, 17.8, 12.6
"2007/05/01", 14.8, 15.7, 14.3
"2007/05/02", 15.7, 17.7, 14.2
"2007/05/03", 16.8, 19.4, 14.6
"2007/05/04", 17.8, 20.1, 15.7
"2007/05/05", 18.6, 20.5, 16.9
"2007/05/06", 17.6, 18.8, 16.4
"2007/05/07", 17.1, 18.7, 15.9
"2007/05/08", 17.9, 20.1, 15.9
"2007/05/09", 18.8, 20.8, 16.9
"2007/05/10", 19.2, 20.6, 18.0
"2007/05/11", 18.2, 20.0, 16.6
"2007/05/12", 17.7, 19.7, 15.6
"2007/05/13", 17.7, 18.4, 17.1
"2007/05/14", 17.5, 19.1, 16.0
"2007/05/15", 17.7, 19.3, 16.2
"2007/05/16", 17.4, 19.5, 15.3
"2007/05/17", 17.2, 18.0, 16.7
"2007/05/18", 17.0, 18.2, 15.6
"2007/05/19", 16.9, 17.4, 16.1
"2007/05/20", 17.5, 20.2, 15.2
"2007/05/21", 18.1, 20.2, 16.0
"2007/05/22", 19.0, 21.1, 17.2
"2007/05/23", 20.0, 22.3, 17.8
"2007/05/24", 20.5, 22.2, 18.9
"2007/05/25", 19.0, 20.4, 18.1
"2007/05/26", 19.7, 21.9, 17.7
"2007/05/27", 20.6, 22.6, 18.7
"2007/05/28", 19.4, 20.5, 18.5
"2007/05/29", 18.7, 20.1, 17.2
"2007/05/30", 18.8, 19.5, 18.2
"2007/05/31", 19.0, 20.6, 17.6
"2007/06/01", 19.1, 20.6, 17.9
"2007/06/02", 19.6, 21.6, 17.6
"2007/06/03", 20.5, 22.3, 18.7
"2007/06/04", 21.0, 22.7, 19.4
"2007/06/05", 21.1, 22.5, 19.7
"2007/06/06", 21.4, 23.1, 19.8
"2007/06/07", 21.3, 22.1, 20.5
"2007/06/08", 21.2, 22.7, 20.1
"2007/06/09", 21.1, 21.9, 20.2
"2007/06/10", 20.6, 21.1, 20.1
"2007/06/11", 20.9, 22.8, 19.3
"2007/06/12", 22.2, 24.3, 20.3
"2007/06/13", 22.8, 24.6, 21.2
"2007/06/14", 22.2, 23.1, 21.3
"2007/06/15", 21.9, 23.8, 20.5
"2007/06/16", 22.5, 24.6, 20.5
"2007/06/17", 22.6, 24.3, 20.9
"2007/06/18", 22.6, 23.8, 21.5
"2007/06/19", 23.3, 25.1, 21.6
"2007/06/20", 24.2, 26.1, 22.4
"2007/06/21", 24.7, 26.5, 23.1
"2007/06/22", 23.7, 24.8, 22.8
"2007/06/23", 23.9, 26.0, 21.9
"2007/06/24", 22.9, 24.0, 22.1
"2007/06/25", 21.8, 22.3, 21.4
"2007/06/26", 21.9, 22.9, 21.1
"2007/06/27", 23.4, 26.1, 21.1
"2007/06/28", 24.5, 26.3, 22.9
"2007/06/29", 24.0, 24.7, 23.4
"2007/06/30", 23.3, 23.9, 22.4
"2007/07/01", 22.8, 24.3, 21.5
"2007/07/02", 22.5, 22.9, 22.0
"2007/07/03", 23.0, 24.8, 21.6
"2007/07/04", 21.7, 23.1, 20.8
"2007/07/05", 21.7, 23.3, 20.5
"2007/07/06", 22.7, 24.9, 20.9
"2007/07/07", 22.6, 23.4, 22.1
"2007/07/08", 22.9, 25.1, 21.3
"2007/07/09", 23.2, 24.7, 22.0
"2007/07/10", 22.6, 23.2, 22.1
"2007/07/11", 22.2, 22.7, 21.6
"2007/07/12", 22.5, 23.5, 21.7
"2007/07/13", 22.3, 22.9, 21.8
"2007/07/14", 21.2, 21.9, 20.2
"2007/07/15", 21.7, 23.4, 20.2
"2007/07/16", 22.3, 24.1, 21.1
"2007/07/17", 21.2, 22.1, 20.5
"2007/07/18", 20.5, 21.1, 19.9
"2007/07/19", 21.1, 22.6, 20.0
"2007/07/20", 22.1, 23.9, 20.3
"2007/07/21", 22.3, 22.8, 21.9
"2007/07/22", 22.7, 23.8, 21.8
"2007/07/23", 22.9, 23.5, 22.5
"2007/07/24", 23.7, 25.9, 21.8
"2007/07/25", 24.6, 26.6, 22.9
"2007/07/26", 24.8, 26.2, 23.6
"2007/07/27", 25.6, 27.6, 23.8
"2007/07/28", 25.9, 27.8, 24.2
"2007/07/29", 25.7, 26.7, 25.0
"2007/07/30", 23.4, 25.0, 22.3
"2007/07/31", 22.9, 24.4, 21.7
"2007/08/01", 23.8, 25.6, 22.1
"2007/08/02", 25.3, 26.8, 24.0
"2007/08/03", 25.7, 26.9, 24.6
"2007/08/04", 26.1, 27.6, 24.7
"2007/08/05", 26.8, 28.6, 25.3
"2007/08/06", 27.2, 29.1, 25.5
"2007/08/07", 27.2, 28.8, 25.7
"2007/08/08", 27.4, 29.1, 26.1
"2007/08/09", 27.9, 29.9, 26.1
"2007/08/10", 28.3, 30.3, 26.4
"2007/08/11", 28.7, 30.6, 26.9
"2007/08/12", 28.6, 30.1, 27.1
"2007/08/13", 27.9, 29.1, 26.6
"2007/08/14", 28.5, 30.7, 26.6
"2007/08/15", 29.3, 31.5, 27.3
"2007/08/16", 30.1, 32.1, 28.4
"2007/08/17", 29.8, 31.1, 28.6
"2007/08/18", 27.6, 29.4, 26.6
"2007/08/19", 27.2, 29.1, 25.5
"2007/08/20", 28.4, 30.4, 26.6
"2007/08/21", 29.0, 30.8, 27.6
"2007/08/22", 29.2, 31.1, 27.7
"2007/08/23", 27.3, 28.6, 26.5
"2007/08/24", 26.6, 28.4, 25.4
"2007/08/25", 27.4, 29.5, 25.7
"2007/08/26", 28.0, 30.0, 26.3
"2007/08/27", 28.1, 29.4, 26.8
"2007/08/28", 27.7, 28.8, 26.7
"2007/08/29", 26.2, 27.3, 25.4
"2007/08/30", 24.8, 25.5, 24.0
"2007/08/31", 23.9, 24.5, 23.3
"2007/09/01", 23.4, 24.2, 22.9
"2007/09/02", 23.6, 25.3, 22.3
"2007/09/03", 24.7, 26.7, 23.2
"2007/09/04", 25.7, 27.5, 24.2
"2007/09/05", 26.1, 26.9, 25.4
"2007/09/06", 25.3, 25.7, 24.8
"2007/09/07", 24.2, 24.8, 23.6
"2007/09/08", 25.1, 26.8, 23.7
"2007/09/09", 25.6, 26.9, 24.4
"2007/09/10", 25.5, 26.1, 24.9
"2007/09/11", 24.5, 25.2, 23.9
"2007/09/12", 22.6, 23.9, 21.7
"2007/09/13"," * "," * "," * "
"2007/09/14"," * "," * "," * "
"2007/09/15", 24.1, 25.7, 22.9
"2007/09/16", 24.9, 26.2, 23.7
"2007/09/17", 25.3, 26.5, 24.3
"2007/09/18", 24.5, 25.5, 23.7
"2007/09/19", 24.0, 25.1, 23.1
"2007/09/20", 24.8, 26.2, 23.5
"2007/09/21", 24.9, 26.2, 23.6
"2007/09/22", 25.2, 26.5, 24.0
"2007/09/23", 24.3, 25.3, 23.3
"2007/09/24", 23.0, 23.4, 22.7
"2007/09/25", 23.2, 24.4, 22.2
"2007/09/26", 23.0, 24.0, 22.1
"2007/09/27", 22.9, 23.7, 22.2
"2007/09/28", 23.6, 25.1, 22.4
"2007/09/29", 22.3, 23.9, 21.2
"2007/09/30", 20.1, 21.2, 19.1
"2007/10/01", 19.3, 19.9, 18.9
"2007/10/02", 19.6, 20.5, 18.8
"2007/10/03", 19.8, 20.3, 19.3
"2007/10/04", 20.4, 21.9, 19.2
"2007/10/05", 21.0, 22.2, 20.0
"2007/10/06", 20.0, 20.8, 19.3
"2007/10/07", 19.3, 20.4, 18.0
"2007/10/08", 19.3, 20.0, 18.6
"2007/10/09", 19.3, 19.8, 18.7
"2007/10/10", 18.9, 20.1, 18.1
"2007/10/11", 18.9, 20.3, 17.7
"2007/10/12", 19.6, 20.7, 18.8
"2007/10/13", 19.2, 19.8, 18.6
"2007/10/14", 18.6, 19.0, 18.1
"2007/10/15", 18.7, 19.6, 18.0
"2007/10/16", 18.0, 18.7, 17.5
"2007/10/17", 17.6, 18.4, 16.9
"2007/10/18", 17.4, 18.3, 16.5
"2007/10/19", 17.4, 18.1, 16.7
"2007/10/20", 17.4, 18.3, 16.6
"2007/10/21", 16.9, 17.9, 15.8
"2007/10/22", 16.0, 17.3, 14.7
"2007/10/23", 16.1, 17.4, 15.2
"2007/10/24", 16.2, 17.3, 15.1
"2007/10/25", 15.7, 16.8, 14.4
"2007/10/26", 16.5, 17.2, 16.0
"2007/10/27", 16.1, 16.9, 14.0
"2007/10/28", 15.2, 16.7, 14.0
"2007/10/29", 16.1, 16.9, 15.4
"2007/10/30", 16.1, 16.9, 15.2
"2007/10/31", 16.3, 17.2, 15.5
"2007/11/01", 16.0, 16.5, 15.3
"2007/11/02", 15.7, 16.1, 15.1
"2007/11/03", 14.8, 15.4, 14.2
"2007/11/04", 14.2, 15.3, 13.0
"2007/11/05", 14.7, 15.6, 13.9
"2007/11/06", 14.8, 15.3, 14.4
"2007/11/07", 14.5, 15.3, 13.6
"2007/11/08", 13.6, 14.7, 12.5
"2007/11/09", 13.9, 14.6, 13.0
"2007/11/10", 13.8, 14.2, 13.5
"2007/11/11", 13.5, 14.0, 13.1
"2007/11/12", 13.3, 14.1, 12.5
"2007/11/13", 12.9, 13.9, 11.8
"2007/11/14", 13.0, 14.1, 12.1
"2007/11/15", 13.0, 14.0, 12.0
"2007/11/16", 12.2, 13.0, 11.6
"2007/11/17", 11.3, 11.8, 10.6
"2007/11/18", 10.8, 11.8,  9.7
"2007/11/19", 10.2, 10.9,  9.2
"2007/11/20", 10.0, 10.4,  9.6
"2007/11/21",  9.5, 10.6,  8.6
"2007/11/22",  8.9, 10.0,  7.8
"2007/11/23",  8.2,  9.5,  7.0
"2007/11/24",  8.0,  9.5,  6.6
"2007/11/25",  8.3,  9.9,  6.8
"2007/11/26",  8.6,  9.8,  7.5
"2007/11/27",  9.0,  9.6,  8.4
"2007/11/28",  9.1,  9.6,  8.8
"2007/11/29",  8.8,  9.1,  8.6
"2007/11/30",  8.7,  9.2,  8.3
"2007/12/01",  9.0, 10.3,  7.8
"2007/12/02",  8.4,  9.7,  7.2
"2007/12/03",  7.6,  8.3,  6.8
"2007/12/04",  7.6,  8.9,  6.6
"2007/12/05",  6.8,  8.1,  5.5
"2007/12/06",  6.2,  7.6,  4.9
"2007/12/07",  6.4,  8.0,  5.1
"2007/12/08",  7.1,  8.3,  6.1
"2007/12/09",  7.2,  8.4,  6.0
"2007/12/10",  6.4,  7.7,  5.1
"2007/12/11",  7.2,  8.2,  6.3
"2007/12/12",  7.5,  8.6,  6.2
"2007/12/13",  7.9,  8.2,  7.6
"2007/12/14",  7.5,  8.8,  6.4
"2007/12/15",  6.3,  7.6,  5.1
"2007/12/16",  5.7,  6.9,  4.7
"2007/12/17",  4.5,  5.3,  3.6
"2007/12/18",  4.5,  6.0,  3.1
"2007/12/19",  4.6,  5.4,  3.7
"2007/12/20",  5.2,  6.7,  4.3
"2007/12/21",  4.9,  6.2,  3.6
"2007/12/22",  4.9,  5.3,  4.6
"2007/12/23",  5.8,  7.1,  5.1
"2007/12/24",  6.3,  7.6,  5.3
"2007/12/25",  5.0,  5.8,  3.9
"2007/12/26",  4.6,  5.7,  3.7
"2007/12/27",  4.4,  5.8,  3.2
"2007/12/28",  4.5,  5.6,  3.4
"2007/12/29",  7.0,  7.6,  5.6
"2007/12/30",  7.3,  8.4,  5.9
"2007/12/31",  4.8,  5.9,  3.8
